Location: Champseau
(45.8333°N, 1.7667°E)
Time: 04:16:11
(UTC+00:00)

USA 245 - Pass Details

Date: 18 April 2021
Orbit: 267 x 985 km, 97.9° (Epoch: 06 May)

Event Time Altitude Azimuth Distance (km) Brightness Sun altitude
Exits shadow 20:24:19 31° 100° (E) 979 4.1 -16.4°
Maximum altitude 20:25:09 34° 73° (ENE) 877 4.0 -16.5°
Drops below altitude 10° 20:28:18 10° 7° (N) 1,606 6.1 -17.0°
Sets 20:30:13 0° 357° (N) 2,375 7.2 -17.2°
